Other Surface Observations
Issued by NWS Jacksonville, FL

Home | Current Version | Previous Version | Text Only | Print | Product List | Glossary On
Versions: 1 2 3 4 5 6 7 8 9 10 11 12 13 14 15 16 17 18 19 20 21 22 23 24 25 26 27 28 29 30 31 32 33 34 35 36 37 38 39 40 41 42 43 44 45 46 47 48 49 50
285
SXUS52 KJAX 190812
OSOJAX
OTHER SURFACE OBSERVATIONS
NATIONAL WEATHER SERVICE JACKSONVILLE FL
300 AM EST THU JAN 19 2017

FLZ020>025-030>033-035>038-040-190900-
...FLORIDA...

CITY           SKY/WX    TMP DP  RH WIND       PRES   REMARKS
CECIL FIELD    FOG       61  61 100 W3        30.06S VSB 1/4
HERLONG FIELD  NOT AVBL
FERNANDINA BCH NOT AVBL
LAKE CITY      FOG       61  61 100 CALM      30.07S VSB 1/2
JUNIPER SPGS   NOT AVBL
BUNNELL        NOT AVBL
KEYSTONE HGTS  CLOUDY    61  61 100 CALM      30.07F VSB 1/4
$$

GAZ132>136-149>154-162>166-190900-
...GEORGIA...

CITY           SKY/WX    TMP DP  RH WIND       PRES   REMARKS
JESUP          FAIR      61  55  82 NW5       30.05F
HOMERVILLE     FAIR      54  54 100 CALM      30.06F
SWAINSBORO     FAIR      55  55 100 MISG      30.06S
CORDELE        NOT AVBL
EASTMAN        FOG       53  53 100 CALM      30.09S VSB 1
$$

PLEASE NOTE:  THESE OBSERVATIONS ARE NOT QUALITY CONTROLLED AND MAY
NOT BE AVAILABLE AT ALL TIMES.
$$




USA.gov is the U.S. government's official web portal to all federal, state and local government web resources and services.